Time,TemperatureF,DewpointF,PressureIn,WindDirection,WindDirectionDegrees,WindSpeedMPH,WindSpeedGustMPH,Humidity,HourlyPrecipIn,Conditions,Clouds,dailyrainin,SoftwareType,DateUTC
2013-09-11 00:13:00,84.0,-99.9,-100.00,SW,218,10.0,14.0,-999,0.00,,,0.00,,2013-09-11 05:13:00,
2013-09-11 00:23:00,84.0,-99.9,-100.00,SW,218,10.0,14.0,-999,0.00,,,0.00,,2013-09-11 05:23:00,
2013-09-11 00:43:00,84.0,-99.9,-100.00,SW,215,11.0,15.0,-999,0.00,,,0.00,,2013-09-11 05:43:00,
2013-09-11 00:53:00,84.0,-99.9,-100.00,SW,215,11.0,15.0,-999,0.00,,,0.00,,2013-09-11 05:53:00,
2013-09-11 01:12:00,84.0,-99.9,-100.00,SW,214,10.0,13.0,-999,0.00,,,0.00,,2013-09-11 06:12:00,
2013-09-11 01:22:00,84.0,-99.9,-100.00,SW,214,10.0,13.0,-999,0.00,,,0.00,,2013-09-11 06:22:00,
2013-09-11 01:42:00,83.0,-99.9,-100.00,SW,220,13.0,15.0,-999,0.00,,,0.00,,2013-09-11 06:42:00,
2013-09-11 01:52:00,83.0,-99.9,-100.00,SW,220,13.0,15.0,-999,0.00,,,0.00,,2013-09-11 06:52:00,
2013-09-11 02:12:00,84.0,-99.9,-100.00,SW,230,11.0,16.0,-999,0.00,,,0.00,,2013-09-11 07:12:00,
2013-09-11 02:24:00,84.0,-99.9,-100.00,SW,230,11.0,16.0,-999,0.00,,,0.00,,2013-09-11 07:24:00,
2013-09-11 02:42:00,82.0,-99.9,-100.00,WSW,237,8.0,10.0,-999,0.00,,,0.00,,2013-09-11 07:42:00,
2013-09-11 02:53:00,82.0,-99.9,-100.00,WSW,237,8.0,10.0,-999,0.00,,,0.00,,2013-09-11 07:53:00,
2013-09-11 03:12:00,81.0,-99.9,-100.00,SW,235,7.0,11.0,-999,0.00,,,0.00,,2013-09-11 08:12:00,
2013-09-11 03:22:00,81.0,-99.9,-100.00,SW,235,7.0,11.0,-999,0.00,,,0.00,,2013-09-11 08:22:00,
2013-09-11 03:42:00,80.0,-99.9,-100.00,WSW,242,5.0,8.0,-999,0.00,,,0.00,,2013-09-11 08:42:00,
2013-09-11 03:52:00,80.0,-99.9,-100.00,WSW,242,5.0,8.0,-999,0.00,,,0.00,,2013-09-11 08:52:00,
2013-09-11 04:12:00,79.0,-99.9,-100.00,SW,235,5.0,6.0,-999,0.00,,,0.00,,2013-09-11 09:12:00,
2013-09-11 04:22:00,79.0,-99.9,-100.00,SW,235,5.0,6.0,-999,0.00,,,0.00,,2013-09-11 09:22:00,
2013-09-11 04:43:00,79.0,-99.9,-100.00,WSW,247,6.0,7.0,-999,0.00,,,0.00,,2013-09-11 09:43:00,
2013-09-11 04:53:00,79.0,-99.9,-100.00,WSW,247,6.0,7.0,-999,0.00,,,0.00,,2013-09-11 09:53:00,
2013-09-11 05:13:00,78.0,-99.9,-100.00,WSW,238,5.0,9.0,-999,0.00,,,0.00,,2013-09-11 10:13:00,
2013-09-11 05:23:00,78.0,-99.9,-100.00,WSW,238,5.0,9.0,-999,0.00,,,0.00,,2013-09-11 10:23:00,
2013-09-11 05:43:00,78.0,-99.9,-100.00,WSW,244,6.0,7.0,-999,0.00,,,0.00,,2013-09-11 10:43:00,
2013-09-11 05:53:00,78.0,-99.9,-100.00,WSW,244,6.0,7.0,-999,0.00,,,0.00,,2013-09-11 10:53:00,
2013-09-11 06:12:00,77.0,-99.9,-100.00,WSW,249,4.0,6.0,-999,0.00,,,0.00,,2013-09-11 11:12:00,
2013-09-11 06:22:00,77.0,-99.9,-100.00,WSW,249,4.0,6.0,-999,0.00,,,0.00,,2013-09-11 11:22:00,
2013-09-11 06:42:00,78.0,-99.9,-100.00,WSW,238,5.0,6.0,-999,0.00,,,0.00,,2013-09-11 11:42:00,
2013-09-11 06:52:00,78.0,-99.9,-100.00,WSW,238,5.0,6.0,-999,0.00,,,0.00,,2013-09-11 11:52:00,
2013-09-11 07:11:00,77.0,-99.9,-100.00,WSW,239,4.0,6.0,-999,0.00,,,0.00,,2013-09-11 12:11:00,
2013-09-11 07:22:00,77.0,-99.9,-100.00,WSW,239,4.0,6.0,-999,0.00,,,0.00,,2013-09-11 12:22:00,
2013-09-11 07:42:00,78.0,-99.9,-100.00,WSW,247,5.0,7.0,-999,0.00,,,0.00,,2013-09-11 12:42:00,
2013-09-11 07:52:00,78.0,-99.9,-100.00,WSW,247,5.0,7.0,-999,0.00,,,0.00,,2013-09-11 12:52:00,
2013-09-11 08:12:00,77.0,-99.9,-100.00,West,271,7.0,10.0,-999,0.00,,,0.00,,2013-09-11 13:12:00,
2013-09-11 08:22:00,77.0,-99.9,-100.00,West,271,7.0,10.0,-999,0.00,,,0.00,,2013-09-11 13:22:00,
2013-09-11 08:42:00,76.0,-99.9,-100.00,WNW,302,4.0,6.0,-999,0.00,,,0.00,,2013-09-11 13:42:00,
2013-09-11 08:53:00,76.0,-99.9,-100.00,WNW,302,4.0,6.0,-999,0.00,,,0.00,,2013-09-11 13:53:00,
2013-09-11 09:11:00,77.0,-99.9,-100.00,NE,43,4.0,6.0,-999,0.00,,,0.00,,2013-09-11 14:11:00,
2013-09-11 09:22:00,77.0,-99.9,-100.00,NE,43,4.0,6.0,-999,0.00,,,0.00,,2013-09-11 14:22:00,
2013-09-11 09:42:00,77.0,-99.9,-100.00,NE,35,4.0,5.0,-999,0.00,,,0.00,,2013-09-11 14:42:00,
2013-09-11 09:52:00,77.0,-99.9,-100.00,NE,35,4.0,5.0,-999,0.00,,,0.00,,2013-09-11 14:52:00,
2013-09-11 10:12:00,78.0,-99.9,-100.00,East,79,5.0,7.0,-999,0.00,,,0.00,,2013-09-11 15:12:00,
2013-09-11 10:22:00,78.0,-99.9,-100.00,East,79,5.0,7.0,-999,0.00,,,0.00,,2013-09-11 15:22:00,
2013-09-11 10:43:00,79.0,-99.9,-100.00,ENE,71,1.0,2.0,-999,0.00,,,0.00,,2013-09-11 15:43:00,
2013-09-11 10:54:00,79.0,-99.9,-100.00,ENE,71,1.0,2.0,-999,0.00,,,0.00,,2013-09-11 15:54:00,
2013-09-11 11:13:00,80.0,-99.9,-100.00,ENE,64,1.0,1.0,-999,0.00,,,0.00,,2013-09-11 16:13:00,
2013-09-11 11:23:00,80.0,-99.9,-100.00,ENE,64,1.0,1.0,-999,0.00,,,0.00,,2013-09-11 16:23:00,
2013-09-11 11:43:00,83.0,-99.9,-100.00,South,176,0.0,3.0,-999,0.00,,,0.00,,2013-09-11 16:43:00,
2013-09-11 11:53:00,83.0,-99.9,-100.00,South,176,0.0,3.0,-999,0.00,,,0.00,,2013-09-11 16:53:00,
2013-09-11 12:13:00,85.0,-99.9,-100.00,SSW,203,2.0,4.0,-999,0.00,,,0.00,,2013-09-11 17:13:00,
2013-09-11 12:24:00,85.0,-99.9,-100.00,SSW,203,2.0,4.0,-999,0.00,,,0.00,,2013-09-11 17:24:00,
2013-09-11 12:43:00,83.0,-99.9,-100.00,SW,222,5.0,8.0,-999,0.00,,,0.00,,2013-09-11 17:43:00,
2013-09-11 12:52:00,83.0,-99.9,-100.00,SW,222,5.0,8.0,-999,0.00,,,0.00,,2013-09-11 17:52:00,
2013-09-11 13:12:00,84.0,-99.9,-100.00,West,272,7.0,10.0,-999,0.00,,,0.00,,2013-09-11 18:12:00,
2013-09-11 13:22:00,84.0,-99.9,-100.00,West,272,7.0,10.0,-999,0.00,,,0.00,,2013-09-11 18:22:00,
2013-09-11 13:42:00,83.0,-99.9,-100.00,West,261,6.0,9.0,-999,0.00,,,0.00,,2013-09-11 18:42:00,
2013-09-11 13:52:00,83.0,-99.9,-100.00,West,261,6.0,9.0,-999,0.00,,,0.00,,2013-09-11 18:52:00,
2013-09-11 14:12:00,83.0,-99.9,-100.00,WSW,246,4.0,6.0,-999,0.00,,,0.00,,2013-09-11 19:12:00,
2013-09-11 14:22:00,83.0,-99.9,-100.00,WSW,246,4.0,6.0,-999,0.00,,,0.00,,2013-09-11 19:22:00,
2013-09-11 14:42:00,81.0,-99.9,-100.00,WSW,243,6.0,8.0,-999,0.00,,,0.00,,2013-09-11 19:42:00,
2013-09-11 14:53:00,81.0,-99.9,-100.00,WSW,243,6.0,8.0,-999,0.00,,,0.00,,2013-09-11 19:53:00,
2013-09-11 15:12:00,79.0,-99.9,-100.00,West,272,5.0,6.0,-999,0.00,,,0.00,,2013-09-11 20:12:00,
2013-09-11 15:22:00,79.0,-99.9,-100.00,West,272,5.0,6.0,-999,0.00,,,0.00,,2013-09-11 20:22:00,
2013-09-11 15:42:00,80.0,-99.9,-100.00,West,259,5.0,7.0,-999,0.00,,,0.00,,2013-09-11 20:42:00,
2013-09-11 15:52:00,80.0,-99.9,-100.00,West,259,5.0,7.0,-999,0.00,,,0.00,,2013-09-11 20:52:00,
2013-09-11 16:12:00,81.0,-99.9,-100.00,SW,231,5.0,8.0,-999,0.00,,,0.00,,2013-09-11 21:12:00,
2013-09-11 16:22:00,81.0,-99.9,-100.00,SW,231,5.0,8.0,-999,0.00,,,0.00,,2013-09-11 21:22:00,
2013-09-11 16:44:00,82.0,-99.9,-100.00,SW,229,9.0,13.0,-999,0.00,,,0.00,,2013-09-11 21:44:00,
2013-09-11 16:55:00,82.0,-99.9,-100.00,SW,229,9.0,13.0,-999,0.00,,,0.00,,2013-09-11 21:55:00,
2013-09-11 17:14:00,81.0,-99.9,-100.00,SW,235,8.0,11.0,-999,0.00,,,-99.99,,2013-09-11 22:14:00,
2013-09-11 17:24:00,81.0,-99.9,-100.00,SW,235,8.0,11.0,-999,0.00,,,-99.99,,2013-09-11 22:24:00,
2013-09-11 17:43:00,82.0,-99.9,-100.00,SW,228,9.0,12.0,-999,0.00,,,0.00,,2013-09-11 22:43:00,
2013-09-11 17:54:00,82.0,-99.9,-100.00,SW,228,9.0,12.0,-999,0.00,,,0.00,,2013-09-11 22:54:00,
2013-09-11 18:12:00,81.0,-99.9,-100.00,SW,230,10.0,13.0,-999,0.00,,,0.00,,2013-09-11 23:12:00,
2013-09-11 18:22:00,81.0,-99.9,-100.00,SW,230,10.0,13.0,-999,0.00,,,0.00,,2013-09-11 23:22:00,
2013-09-11 18:42:00,80.0,-99.9,-100.00,WSW,247,7.0,13.0,-999,0.00,,,0.00,,2013-09-11 23:42:00,
2013-09-11 18:53:00,80.0,-99.9,-100.00,WSW,247,7.0,13.0,-999,0.00,,,0.00,,2013-09-11 23:53:00,
2013-09-11 19:12:00,80.0,-99.9,-100.00,SW,228,5.0,8.0,-999,0.00,,,0.00,,2013-09-12 00:12:00,
2013-09-11 19:22:00,80.0,-99.9,-100.00,SW,228,5.0,8.0,-999,0.00,,,0.00,,2013-09-12 00:22:00,
2013-09-11 19:42:00,79.0,-99.9,-100.00,WSW,246,5.0,6.0,-999,0.00,,,0.00,,2013-09-12 00:42:00,
2013-09-11 19:52:00,79.0,-99.9,-100.00,WSW,246,5.0,6.0,-999,0.00,,,0.00,,2013-09-12 00:52:00,
2013-09-11 20:11:00,78.0,-99.9,-100.00,West,259,3.0,5.0,-999,0.00,,,0.00,,2013-09-12 01:11:00,
2013-09-11 20:23:00,78.0,-99.9,-100.00,West,259,3.0,5.0,-999,0.00,,,0.00,,2013-09-12 01:23:00,
2013-09-11 20:42:00,77.0,-99.9,-100.00,WSW,258,4.0,6.0,-999,0.00,,,0.00,,2013-09-12 01:42:00,
2013-09-11 20:52:00,77.0,-99.9,-100.00,WSW,258,4.0,6.0,-999,0.00,,,0.00,,2013-09-12 01:52:00,
2013-09-11 21:12:00,77.0,-99.9,-100.00,West,259,3.0,5.0,-999,0.00,,,0.00,,2013-09-12 02:12:00,
2013-09-11 21:22:00,77.0,-99.9,-100.00,West,259,3.0,5.0,-999,0.00,,,0.00,,2013-09-12 02:22:00,
2013-09-11 21:52:00,76.0,-99.9,-100.00,WSW,240,3.0,4.0,-999,0.00,,,0.00,,2013-09-12 02:52:00,
2013-09-11 22:11:00,76.0,-99.9,-100.00,WSW,253,4.0,6.0,-999,0.00,,,0.00,,2013-09-12 03:11:00,
2013-09-11 22:22:00,76.0,-99.9,-100.00,WSW,253,4.0,6.0,-999,0.00,,,0.00,,2013-09-12 03:22:00,
2013-09-11 22:45:00,76.0,-99.9,-100.00,West,279,4.0,7.0,-999,0.00,,,0.00,,2013-09-12 03:45:00,
2013-09-11 22:55:00,76.0,-99.9,-100.00,West,279,4.0,7.0,-999,0.00,,,0.00,,2013-09-12 03:55:00,
2013-09-11 23:14:00,75.0,-99.9,-100.00,WSW,258,4.0,5.0,-999,0.00,,,0.00,,2013-09-12 04:14:00,
2013-09-11 23:24:00,75.0,-99.9,-100.00,WSW,258,4.0,5.0,-999,0.00,,,0.00,,2013-09-12 04:24:00,
2013-09-11 23:44:00,74.0,-99.9,-100.00,West,262,4.0,6.0,-999,0.00,,,0.00,,2013-09-12 04:44:00,
2013-09-11 23:54:00,74.0,-99.9,-100.00,West,262,4.0,6.0,-999,0.00,,,0.00,,2013-09-12 04:54:00,